H-2A R/B, 61440

Orbit data source: Space-Track

H-2A R/B, 61440 is space debris in SSO originally from a launch on Thu, 26 Sep 2024 UTC launched from the Tanegashima Space Center (TNSTA). Debris objects in space refer to the collection of defunct objects orbiting the Earth. Examples of debris include non-operational satellites, rocket bodies, and fragments generated from explosions, collisions, or faulty payload assembly.

Loading next visibility...
Identifier
61440, 2024-176B
Orbit
SSO
Last TLE update
12 hours ago
Origin
Manufacturer
MHI Tobishima
Mission
Spacecraft
Bus & Motor
H-2A STAGE 2, Unknown motor
Mass
4,000 kg wet, 4,000 kg dry
Launch date (UTC)
2024-09-26 (9 months ago)
Launch vehicle
Unknown
Launch site
Tanegashima Space Center (TNSTA)
Object type
Payload
Rocket body
Debris
Shape & HBR
Cyl, 9.2 m
Radar Cross Section
35.186 m², Large (>1 m²)

Expand to show TLE details & history

TLE from 12 hours ago
0 H-2A R/B
1 61440U 24176B   25182.24364142  .00021595  00000-0  49552-3 0  9999
2 61440  97.2450 312.4458 0014448 134.5819 225.6610 15.42629306 42627
Epoch: 2025-07-01T05:50Z
TLE epoch observation values (Epoch: 2025-07-01T05:50:50.618Z)
Latitude
-0.00011°
Longitude
-54.80698°
Altitude
448.37 km
Speed
7.639 km/s
True Right ascension
20h 49m 46s
True Declination
0° 00' 00"
Sunlit
Object was in full shadow at epoch
Visualization orbit readout
Latitude
-38.90038°
Longitude
-48.4431°
Altitude
462.972 km
Speed
7.628 km/s
Apparent Right ascension
19h 36m 08s
Apparent Declination
-42° 12' 41"
Sunlit
Object is in full shadow
Visualization observer readout
Local Sidereal Time
05:47:38
Azimuth
254.71° W
Elevation
-69.506°
Doppler factor
1
Orbital elements
Apogee altitude
445.126 km
Perigee altitude
425.438 km
Semi-major axis
6,813.419 km
Eccentricity
0.00144
Inclination
97.245°
RAAN
312.4458°
Arg. of periapsis
134.5819°
True anomaly
Unknown
Mean anomaly
225.661°
Eccentric anomaly
Unknown
Mean motion
3.85918 °/min
Orbital period
93.28 mins
BSTAR
0.00049552
Loading maneuver chart data...
Loading SW <> Apogee altitude chart data...
Loading historical data...
Loading historical data...
Loading historical data...
Loading historical data...
Loading historical data...
Loading historical data...
Loading historical data...
Other satellites on launch #176 in the year 2024 (2024-09-26 UTC)

H-2A R/B Visibility forecast

Observer location: undefined°, undefined°

Span
Click to sort rows by Start time (UTC) header in descending order
Start Az.
Max El. time (UTC)
Max El. Az.
Max El.
End time (UTC)
End Az.
5 mins2025-07-01 21:57:55.791Z353.747° N2025-07-01 22:00:55.791Z279.781° WNW30.874°2025-07-01 22:02:55.791Z225.028° WSW
4 mins2025-07-02 08:27:55.791Z133.796° SE2025-07-02 08:28:55.791Z103.301° ESE33.857°2025-07-02 08:31:55.791Z4.467° NNE
|